Date String (YYYY-MM-DD hh:mm:ss) UTC,Instrument flags,Ambient pressure (hPa),Sample flow (lpm),Bypass flow (lpm),Sample temperature (°C),Ambient temperature (°C),ASC tube jacket temperature (°C),LED temperature (°C),Box temperature (°C),Sample RH (%),Span deviation,Mass concentration (μg/m³),Mass concentration (μg/m³),Mass concentration (μg/m³)
DateTimeUTC,F1_M11,P_M11,Q1_M11,Q2_M11,T1_M11,T2_M11,T3_M11,T4_M11,T5_M11,U1_M11,ZSPAN_M11,X2_M11,X0_M11,X1_M11
2023-01-30 11:00:00,,0824.7,4.99,0.00,22.6,22.4,00.0,31.4,24.5,03.6,0002.2,0005.83,0010.65,0004.95
2023-01-30 11:01:00,,0824.6,5.01,0.00,22.6,21.8,00.0,31.4,24.3,03.6,0002.5,0005.81,0010.52,0004.97
2023-01-30 11:02:00,,0824.7,5.00,0.00,22.5,21.3,00.0,31.4,24.1,03.6,0002.6,0005.84,0009.96,0004.99
2023-01-30 11:03:00,,0824.7,5.01,0.00,22.4,20.8,00.0,31.4,23.9,03.6,0002.4,0005.90,0010.09,0005.01
2023-01-30 11:04:00,,0824.7,5.01,0.00,22.3,20.6,00.0,31.3,23.8,03.6,0002.4,0005.99,0010.42,0005.02
2023-01-30 11:05:00,,0824.6,5.01,0.00,22.4,21.4,00.0,31.3,24.1,03.6,0002.6,0006.05,0010.54,0005.05
2023-01-30 11:06:00,,0824.8,4.97,0.00,22.5,22.3,00.0,31.3,24.3,03.6,0002.5,0006.05,0010.54,0005.06
2023-01-30 11:07:00,,0824.8,4.98,0.00,22.6,22.9,00.0,31.3,24.5,03.6,0002.3,0006.02,0010.48,0005.05
2023-01-30 11:08:00,,0824.7,5.02,0.00,22.6,22.5,00.0,31.3,24.5,03.6,0002.1,0006.03,0010.46,0005.06
2023-01-30 11:09:00,,0824.6,5.00,0.00,22.6,21.8,00.0,31.4,24.3,03.6,0002.2,0006.07,0010.55,0005.09
2023-01-30 11:10:00,,0824.7,5.01,0.00,22.5,21.3,00.0,31.4,24.1,03.6,0002.4,0006.09,0010.61,0005.10
2023-01-30 11:11:00,,0824.8,4.98,0.00,22.4,20.8,00.0,31.4,23.9,03.6,0002.6,0006.06,0010.52,0005.10
2023-01-30 11:12:00,,0824.7,4.99,0.00,22.3,20.4,00.0,31.3,23.8,03.6,0002.5,0006.06,0010.52,0005.09
2023-01-30 11:13:00,,0824.8,5.01,0.00,22.3,20.7,00.0,31.3,23.9,03.6,0002.4,0006.03,0010.45,0005.08
2023-01-30 11:14:00,,0824.8,5.00,0.00,22.4,21.7,00.0,31.2,24.1,03.6,0002.5,0005.98,0010.34,0005.05
2023-01-30 11:15:00,,0824.9,4.99,0.00,22.5,22.5,00.0,31.2,24.4,03.6,0002.4,0005.94,0010.17,0005.04
2023-01-30 11:16:00,,0824.5,5.00,0.00,22.6,22.8,00.0,31.3,24.5,03.6,0002.3,0005.92,0010.12,0005.02
2023-01-30 11:17:00,,0824.6,4.99,0.00,22.6,22.1,00.0,31.3,24.3,03.6,0002.4,0005.90,0010.53,0005.00
2023-01-30 11:18:00,,0824.6,5.01,0.00,22.5,21.5,00.0,31.3,24.1,03.6,0002.7,0005.91,0010.51,0005.00
2023-01-30 11:19:00,,0824.6,4.99,0.00,22.4,20.9,00.0,31.3,23.9,03.6,0002.8,0005.90,0010.51,0004.98
2023-01-30 11:20:00,,0824.7,5.02,0.00,22.3,20.5,00.0,31.3,23.8,03.6,0002.6,0005.89,0010.52,0004.97
2023-01-30 11:21:00,,0824.6,5.01,0.00,22.3,20.8,00.0,31.3,23.8,03.6,0002.1,0005.86,0010.47,0004.95
2023-01-30 11:22:00,,0824.7,5.00,0.00,22.4,21.8,00.0,31.2,24.1,03.6,0001.9,0005.84,0010.45,0004.93
2023-01-30 11:23:00,,0824.6,4.99,0.00,22.5,22.7,00.0,31.2,24.4,03.6,0002.1,0005.80,0010.38,0004.92
2023-01-30 11:24:00,,0824.7,4.99,0.00,22.6,22.9,00.0,31.3,24.5,03.6,0002.3,0005.84,0010.50,0004.92
2023-01-30 11:25:00,,0824.6,5.02,0.00,22.6,22.2,00.0,31.3,24.3,03.6,0002.6,0005.87,0010.57,0004.92
2023-01-30 11:26:00,,0824.5,5.00,0.00,22.5,21.6,00.0,31.3,24.1,03.6,0002.7,0005.84,0010.48,0004.92
2023-01-30 11:27:00,,0824.9,5.00,0.00,22.4,21.0,00.0,31.3,23.9,03.6,0003.0,0005.82,0010.40,0004.93
2023-01-30 11:28:00,,0824.6,5.02,0.00,22.3,20.6,00.0,31.3,23.8,03.6,0003.3,0005.83,0010.00,0004.93
2023-01-30 11:29:00,,0824.6,5.01,0.00,22.3,20.9,00.0,31.3,23.9,03.7,0003.3,0005.79,0009.90,0004.93
2023-01-30 11:30:00,,0824.6,5.01,0.00,22.4,21.9,00.0,31.2,24.1,03.6,0002.9,0005.81,0009.96,0004.92
2023-01-30 11:31:00,,0824.7,4.99,0.00,22.5,22.6,00.0,31.2,24.4,03.6,0003.0,0005.80,0009.90,0004.91
2023-01-30 11:32:00,,0824.7,4.99,0.00,22.6,22.9,00.0,31.3,24.5,03.6,0003.5,0005.78,0009.83,0004.90
2023-01-30 11:33:00,,0825.0,5.02,0.00,22.6,22.1,00.0,31.3,24.3,03.6,0003.7,0005.79,0009.84,0004.90
2023-01-30 11:34:00,,0824.7,5.00,0.00,22.5,21.5,00.0,31.3,24.1,03.6,0003.7,0005.78,0009.80,0004.89
2023-01-30 11:35:00,,0824.6,5.00,0.00,22.4,20.9,00.0,31.3,24.0,03.6,0003.5,0005.76,0009.79,0004.88
2023-01-30 11:36:00,,0824.7,5.00,0.00,22.3,20.5,00.0,31.3,23.8,03.6,0003.5,0005.73,0009.71,0004.85
2023-01-30 11:37:00,,0824.6,4.99,0.00,22.2,20.3,00.0,31.3,23.7,03.6,0003.5,0005.70,0009.69,0004.83
2023-01-30 11:38:00,,0824.6,5.02,0.00,22.2,21.2,00.0,31.2,23.9,03.6,0003.4,0005.66,0009.66,0004.81
2023-01-30 11:39:00,,0824.5,4.99,0.00,22.3,22.1,00.0,31.2,24.2,03.6,0003.3,0005.63,0009.58,0004.80
2023-01-30 11:40:00,,0824.8,5.02,0.00,22.5,22.8,00.0,31.2,24.4,03.6,0003.4,0005.64,0009.63,0004.79
2023-01-30 11:41:00,,0824.6,4.97,0.00,22.5,22.5,00.0,31.2,24.4,03.6,0003.8,0005.62,0009.63,0004.78
2023-01-30 11:42:00,,0824.6,5.00,0.00,22.5,21.8,00.0,31.3,24.2,03.6,0003.6,0005.61,0009.69,0004.76
2023-01-30 11:43:00,,0824.7,4.99,0.00,22.4,21.3,00.0,31.3,24.0,03.6,0002.8,0005.60,0009.74,0004.75
2023-01-30 11:44:00,,0824.6,5.00,0.00,22.3,20.8,00.0,31.3,23.9,03.6,0002.2,0005.59,0009.78,0004.73
2023-01-30 11:45:00,,0824.7,4.99,0.00,22.2,20.6,00.0,31.3,23.7,03.6,0001.6,0005.56,0009.78,0004.70
2023-01-30 11:46:00,,0824.6,4.99,0.00,22.3,21.3,00.0,31.2,24.0,03.6,0001.1,0005.54,0009.79,0004.66
2023-01-30 11:47:00,,0824.7,5.01,0.00,22.4,22.2,00.0,31.2,24.2,03.6,0000.9,0005.52,0009.76,0004.65
2023-01-30 11:48:00,,0824.9,5.00,0.00,22.5,22.9,00.0,31.2,24.4,03.6,0001.2,0005.51,0009.74,0004.63
2023-01-30 11:49:00,,0824.7,4.99,0.00,22.5,22.4,00.0,31.2,24.3,03.6,0001.0,0005.47,0009.64,0004.61
2023-01-30 11:50:00,,0824.7,5.00,0.00,22.4,21.6,00.0,31.3,24.1,03.6,0000.6,0005.45,0009.60,0004.59
2023-01-30 11:51:00,,0824.9,5.01,0.00,22.4,21.0,00.0,31.3,23.9,03.6,0000.2,0005.41,0009.50,0004.57
2023-01-30 11:52:00,,0824.6,4.99,0.00,22.3,20.6,00.0,31.2,23.8,03.6,0000.0,0005.33,0009.33,0004.53
2023-01-30 11:53:00,,0824.6,5.02,0.00,22.2,20.2,00.0,31.2,23.6,03.6,-000.3,0005.26,0009.11,0004.50
2023-01-30 11:54:00,,0824.8,5.01,0.00,22.2,20.5,00.0,31.2,23.7,03.6,-000.1,0005.20,0008.95,0004.47
2023-01-30 11:55:00,,0824.7,5.02,0.00,22.2,21.6,00.0,31.1,24.0,03.6,0000.1,0005.15,0008.89,0004.45
2023-01-30 11:56:00,,0824.7,4.99,0.00,22.3,22.4,00.0,31.1,24.2,03.6,0000.1,0005.15,0008.93,0004.43
2023-01-30 11:57:00,,0824.6,5.00,0.00,22.4,22.8,00.0,31.1,24.3,03.6,0000.3,0005.11,0008.80,0004.43
2023-01-30 11:58:00,,0824.4,4.99,0.00,22.4,22.1,00.0,31.2,24.2,03.6,0000.4,0005.08,0008.73,0004.41
2023-01-30 11:59:00,,0824.5,5.00,0.00,22.4,21.4,00.0,31.2,24.0,03.6,-000.1,0005.06,0008.67,0004.39
